Weather History for KMSL - March, 2013

Change the Weather History Date:

Thursday, March 14, 2013

  Actual Average Record
Temperature  
Mean Temperature 43 °F 53 °F  
Max Temperature 58 °F 64 °F 85 °F (1907)
Min Temperature 27 °F 42 °F 16 °F (1926)
Degree Days  
Heating Degree Days 22 13  
Month to date heating degree days 275 201  
Since 1 July heating degree days 2491 2736  
Cooling Degree Days 0 0  
Month to date cooling degree days 0 0  
Year to date cooling degree days 7 1  
Moisture  
Dew Point 23 °F    
Average Humidity 50    
Maximum Humidity 78    
Minimum Humidity 21    
Precipitation  
Precipitation 0.00 in 0.15 in 4.65 in (1964)
Month to date precipitation 1.87 2.13  
Year to date precipitation 13.37 11.40  
Snow  
Snow 0.00 in - - ()
Month to date snowfall T  
Since 1 July snowfall T  
Snow Depth 0.00 in    
Sea Level Pressure  
Sea Level Pressure 30.36 in    
Wind  
Wind Speed 3 mph (ESE)    
Max Wind Speed 10 mph    
Max Gust Speed 14 mph    
Visibility 10 miles    
Events      
T = Trace of Precipitation, MM = Missing Value Source: NWS Daily Summary

Daily Weather History Graph

Daily Weather History Graph

Search for Another Location

Airport or City:

Trip Planner

Search our weather history database for the weather conditions in past years. The results will help you decide how hot, cold, wet, or windy it might be!

Date:

Astronomy

Mar. 14, 2013 Rise Set
Actual Time 7:02 AM CDT 6:57 PM CDT
Civil Twilight 6:36 AM CDT 7:22 PM CDT
Nautical Twilight 6:07 AM CDT 7:51 PM CDT
Astronomical Twilight 5:38 AM CDT 8:21 PM CDT
Moon 8:24 AM CDT (3/14) 10:03 PM CDT (3/14)
Length of Visible Light 12h 45m
Length of Day
11h 55m
Waxing Crescent, 9% of the Moon is Illuminated
Mar 14
Waxing Crescent
Mar 19
First Quarter
Mar 27
Full
Apr 2
Last Quarter
Apr 10
New

Hourly Weather History & Observations

Time (CDT) Temp. Windchill Dew Point Humidity Pressure Visibility Wind Dir Wind Speed Gust Speed Precip Events Conditions
12:53 AM 35.1 °F 32.2 °F 21.9 °F 59% 30.42 in 10.0 mi WNW 3.5 mph - N/A   Clear
1:53 AM 35.1 °F - 21.0 °F 57% 30.43 in 10.0 mi Calm Calm - N/A   Clear
2:53 AM 35.1 °F 32.2 °F 21.0 °F 57% 30.42 in 10.0 mi NE 3.5 mph - N/A   Clear
3:53 AM 33.1 °F 27.7 °F 21.0 °F 61% 30.42 in 10.0 mi NE 5.8 mph - N/A   Clear
4:53 AM 32.0 °F 27.5 °F 19.9 °F 61% 30.41 in 10.0 mi NE 4.6 mph - N/A   Clear
5:53 AM 30.9 °F - 19.0 °F 61% 30.44 in 10.0 mi Calm Calm - N/A   Clear
6:53 AM 27.0 °F - 19.0 °F 72% 30.44 in 10.0 mi Calm Calm - N/A   Clear
7:53 AM 30.0 °F - 24.1 °F 79% 30.45 in 10.0 mi Calm Calm - N/A   Clear
8:53 AM 36.0 °F 32.1 °F 23.0 °F 59% 30.46 in 10.0 mi ESE 4.6 mph - N/A   Clear
9:53 AM 39.0 °F 32.8 °F 21.0 °F 49% 30.44 in 10.0 mi ESE 9.2 mph - N/A   Clear
10:53 AM 41.0 °F 38.0 °F 19.9 °F 43% 30.45 in 10.0 mi ESE 4.6 mph - N/A   Clear
12:53 PM 48.0 °F - 21.0 °F 34% 30.40 in 10.0 mi South 4.6 mph - N/A   Clear
1:53 PM 51.1 °F - 21.0 °F 31% 30.38 in 10.0 mi SSW 4.6 mph - N/A   Clear
2:53 PM 54.0 °F - 18.0 °F 24% 30.34 in 10.0 mi Calm Calm - N/A   Clear
3:53 PM 57.0 °F - 18.0 °F 22% 30.31 in 10.0 mi Calm Calm - N/A   Scattered Clouds
4:53 PM 57.0 °F - 21.0 °F 25% 30.29 in 10.0 mi NW 4.6 mph - N/A   Scattered Clouds
5:53 PM 55.9 °F - 23.0 °F 28% 30.27 in 10.0 mi Calm Calm - N/A   Partly Cloudy
6:53 PM 52.0 °F - 30.0 °F 43% 30.27 in 10.0 mi Calm Calm - N/A   Scattered Clouds
7:53 PM 51.1 °F - 27.0 °F 39% 30.25 in 10.0 mi SE 4.6 mph - N/A   Scattered Clouds
8:53 PM 50.0 °F - 27.0 °F 41% 30.26 in 10.0 mi SE 5.8 mph - N/A   Overcast
9:53 PM 48.0 °F - 28.9 °F 48% 30.27 in 10.0 mi ESE 3.5 mph - N/A   Overcast
10:53 PM 44.1 °F 40.8 °F 27.0 °F 51% 30.27 in 10.0 mi SE 5.8 mph - N/A   Partly Cloudy
11:53 PM 45.0 °F 42.6 °F 25.0 °F 46% 30.25 in 10.0 mi SSE 4.6 mph - N/A   Clear